Le nostre stazioni meteo in Italia

Pubblicità
Il mio iltempo24.it
Capo Bellavista, Italia (16550): Temperatura & dewpoint: 12.03.2019 20:00:00 - 18.03.2019 20:00:00 (CET)Capo Bellavista, Italia (16550): velocità del vento: 12.03.2019 20:00:00 - 18.03.2019 20:00:00 (CET)Capo Bellavista, Italia (16550): direzione del vento: 12.03.2019 20:00:00 - 18.03.2019 20:00:00 (CET)Capo Bellavista, Italia (16550): reduced air pressure: 12.03.2019 20:00:00 - 18.03.2019 20:00:00 (CET)Capo Bellavista, Italia (16550): visibility: 12.03.2019 20:00:00 - 18.03.2019 20:00:00 (CET)Capo Bellavista, Italia (16550): ore di luce: 12.03.2019 20:00:00 - 18.03.2019 20:00:00 (CET)
Data & Tempo tt [°C] td [°C] ff [km/h] ff [kn] dd ppp [hPa] vv [km] sd [min]
18.03.2019 20:00:00 - - - - - - - -
18.03.2019 19:00:00 14,0 10,2 15 8 ESE 1014,8 30 0
18.03.2019 18:00:00 16,4 11,6 16 9 SE 1013,9 20 60
18.03.2019 17:00:00 17,8 10,7 21 11 ESE 1013,4 30 60
18.03.2019 16:00:00 17,8 9,4 18 10 SE 1013,4 20 60
18.03.2019 15:00:00 18,4 9,7 15 8 NNO 1013,4 20 60
18.03.2019 14:00:00 20,0 7,7 11 6 NO 1013,3 30 60
18.03.2019 13:00:00 19,4 12,2 18 10 S 1013,6 20 60
18.03.2019 12:00:00 20,8 11,2 8 4 NE 1013,4 20 60
18.03.2019 11:00:00 19,0 9,8 8 4 O 1013,4 20 60
18.03.2019 10:00:00 16,4 10,5 9 5 SSE 1013,5 20 60
18.03.2019 09:00:00 11,0 10,1 4 2 OSO 1013,1 30 -
18.03.2019 08:00:00 11,0 10,1 15 8 ONO 1013,1 20 -
18.03.2019 07:00:00 11,0 10,2 21 11 NO 1013,1 20 -
18.03.2019 06:00:00 11,2 10,4 13 7 NO 1012,8 10 -
18.03.2019 05:00:00 - - - - - - - -
18.03.2019 04:00:00 11,4 10,6 9 5 NO 1012,1 10 -
18.03.2019 03:00:00 11,8 11,0 34 18 NE 1012,9 10 -
18.03.2019 02:00:00 - - - - - - - -
18.03.2019 01:00:00 11,8 11,0 4 2 SO 1012,8 10 -
18.03.2019 00:00:00 - - - - - - - -
17.03.2019 23:00:00 12,0 11,0 15 8 SSO - 10 -
17.03.2019 22:00:00 12,0 11,0 13 7 SO - 10 -
17.03.2019 21:00:00 12,4 11,6 15 8 SO 1014,0 10 -
17.03.2019 20:00:00 12,8 12,0 15 8 SO 1014,0 10 -
17.03.2019 19:00:00 13,2 12,4 21 11 SSO 1013,8 10 60
17.03.2019 18:00:00 14,8 13,0 24 13 SSO 1013,9 50 60
17.03.2019 17:00:00 15,8 12,6 24 13 SSO 1013,8 20 60
17.03.2019 16:00:00 17,2 10,8 22 12 SSO 1014,8 20 60
17.03.2019 15:00:00 19,0 11,1 15 8 NNE 1014,6 20 60
17.03.2019 14:00:00 19,2 11,3 15 8 S 1015,6 20 60
17.03.2019 13:00:00 20,8 10,9 9 5 S 1016,3 20 60
17.03.2019 12:00:00 20,6 10,7 9 5 NNE 1016,6 20 -
17.03.2019 11:00:00 18,8 9,0 13 7 ESE 1017,4 20 60
17.03.2019 10:00:00 16,8 9,0 9 5 E 1017,8 20 60
17.03.2019 09:00:00 12,0 7,6 11 6 ONO 1018,1 20 60
17.03.2019 08:00:00 10,2 6,8 22 12 NO 1018,0 20 30
17.03.2019 07:00:00 10,0 6,0 21 11 NO - 10 -
17.03.2019 06:00:00 10,0 6,1 18 10 NO 1017,8 20 -
17.03.2019 05:00:00 10,4 6,2 18 10 NO 1017,9 20 -
17.03.2019 04:00:00 10,4 6,6 18 10 NO 1018,2 20 -
17.03.2019 03:00:00 - - - - - - - -
17.03.2019 02:00:00 - - - - - - - -
17.03.2019 01:00:00 11,0 -30,0 18 10 NO 1019,3 20 -
17.03.2019 00:00:00 12,4 8,4 13 7 NE 1019,3 20 -
16.03.2019 23:00:00 12,6 11,2 18 10 NNE 1019,2 20 -
16.03.2019 22:00:00 13,2 10,8 16 9 N 1019,2 20 -
16.03.2019 21:00:00 13,4 11,4 24 13 NE 1018,4 20 -
16.03.2019 20:00:00 13,6 12,3 29 16 NE 1018,2 20 -
16.03.2019 19:00:00 14,4 14,1 18 10 ENE 1017,3 20 12
16.03.2019 18:00:00 15,6 14,8 15 8 E 1016,9 20 60
16.03.2019 17:00:00 16,2 13,6 9 5 E 1016,9 20 60
16.03.2019 16:00:00 16,4 13,8 11 6 E 1017,6 20 60
16.03.2019 15:00:00 17,0 13,8 13 7 E 1017,7 30 60
16.03.2019 14:00:00 18,0 14,0 16 9 ESE - 10 -
16.03.2019 13:00:00 17,8 14,0 21 11 E 1018,0 20 60
16.03.2019 12:00:00 17,0 13,8 22 12 E 1018,0 20 60
16.03.2019 11:00:00 18,0 14,9 21 11 E 1017,9 20 60
16.03.2019 10:00:00 18,2 11,6 13 7 NE 1017,6 20 60
16.03.2019 09:00:00 16,2 7,2 15 8 N 1017,6 30 -
16.03.2019 08:00:00 14,0 10,2 16 9 N 1017,6 20 -
16.03.2019 07:00:00 13,2 9,7 15 8 ENE 1017,1 20 0
16.03.2019 06:00:00 14,6 5,4 11 6 NNO 1016,8 20 -
16.03.2019 05:00:00 16,0 3,4 8 4 O 1016,7 20 -
16.03.2019 04:00:00 15,8 4,8 5 3 OSO 1016,8 20 -
16.03.2019 03:00:00 14,2 6,5 5 3 SSO 1016,9 20 -
16.03.2019 02:00:00 14,8 6,9 5 3 ONO 1017,2 20 -
16.03.2019 01:00:00 14,8 6,1 0 0 ESE 1017,9 20 -
16.03.2019 00:00:00 15,0 6,3 9 5 SSE 1017,9 20 -
15.03.2019 23:00:00 15,0 6,8 13 7 S 1017,7 20 -
15.03.2019 22:00:00 15,2 7,0 16 9 NO 1017,6 20 -
15.03.2019 21:00:00 15,0 8,0 16 9 NO 1016,8 20 -
15.03.2019 20:00:00 15,0 7,3 9 5 S 1016,6 20 -
15.03.2019 19:00:00 15,4 6,7 8 4 S 1015,8 20 -
15.03.2019 18:00:00 17,2 7,3 11 6 SSE 1014,8 20 60
15.03.2019 17:00:00 17,2 7,8 13 7 SSE 1014,9 20 -
15.03.2019 16:00:00 17,8 8,4 18 10 SO 1014,8 20 60
15.03.2019 15:00:00 19,0 8,9 15 8 ESE 1014,6 30 -
15.03.2019 14:00:00 20,0 8,1 15 8 ESE 1014,5 20 -
15.03.2019 13:00:00 21,0 8,0 13 7 SE 1014,6 20 60
15.03.2019 12:00:00 20,0 7,7 21 11 SE 1014,6 20 -
15.03.2019 11:00:00 19,2 6,7 22 12 E 1014,8 20 -
15.03.2019 10:00:00 17,4 6,3 24 13 N 1014,2 20 60
15.03.2019 09:00:00 15,8 5,4 29 16 NNO 1014,3 20 60
15.03.2019 08:00:00 15,0 4,7 28 15 NO 1013,7 20 24
15.03.2019 07:00:00 14,0 4,9 52 28 NO 1012,8 20 0
15.03.2019 06:00:00 14,0 6,4 57 31 NNO 1012,2 20 -
15.03.2019 05:00:00 13,8 5,9 28 15 NNO 1012,3 20 -
15.03.2019 04:00:00 13,8 8,2 39 21 N 1012,7 20 -
15.03.2019 03:00:00 13,8 6,2 39 21 NNO 1013,4 20 -
15.03.2019 02:00:00 13,8 4,9 9 5 E 1013,7 20 -
15.03.2019 01:00:00 13,4 3,8 15 8 S 1013,8 20 -
15.03.2019 00:00:00 13,0 3,7 11 6 NE 1014,5 20 -
14.03.2019 23:00:00 12,6 2,5 31 17 NO 1015,1 20 -
14.03.2019 22:00:00 11,8 1,2 24 13 NNO 1015,4 20 -
14.03.2019 21:00:00 11,8 1,7 22 12 NNO 1015,7 20 -
14.03.2019 20:00:00 11,8 1,4 15 8 NO 1016,2 20 -
14.03.2019 19:00:00 12,0 1,9 22 12 NNO 1016,4 20 0
14.03.2019 18:00:00 14,0 2,0 26 14 NNO 1016,3 20 48
14.03.2019 17:00:00 15,0 0,8 37 20 NNO 1016,2 20 54
14.03.2019 16:00:00 17,2 0,4 31 17 NO 1016,0 30 60
14.03.2019 15:00:00 16,4 -0,8 44 24 NO 1016,4 20 60
14.03.2019 14:00:00 16,4 0,1 50 27 NO 1016,0 20 60
14.03.2019 13:00:00 17,0 -1,1 37 20 NO 1016,5 30 60
14.03.2019 12:00:00 15,6 0,6 39 21 NO 1016,9 30 60
14.03.2019 11:00:00 13,8 0,4 42 23 NO 1017,0 20 60
14.03.2019 10:00:00 12,6 0,7 50 27 NO 1016,9 20 60
14.03.2019 09:00:00 11,2 1,7 61 33 NO 1015,9 30 60
14.03.2019 08:00:00 10,4 2,0 54 29 NO 1015,7 30 60
14.03.2019 07:00:00 10,2 2,3 54 29 NO 1015,5 20 0
14.03.2019 06:00:00 10,4 2,2 55 30 NO 1015,0 30 -
14.03.2019 05:00:00 10,2 1,8 61 33 NO 1014,2 20 -
14.03.2019 04:00:00 10,0 2,1 57 31 NO 1014,3 20 -
14.03.2019 03:00:00 10,8 1,4 54 29 NO 1014,5 20 -
14.03.2019 02:00:00 11,0 0,7 52 28 NO 1015,0 20 -
14.03.2019 01:00:00 11,0 0,4 21 11 NNO 1015,6 20 -
14.03.2019 00:00:00 11,0 0,1 31 17 NO 1015,6 30 -
13.03.2019 23:00:00 11,0 0,4 28 15 NO 1015,5 20 -
13.03.2019 22:00:00 11,8 0,3 21 11 NO 1015,4 20 -
13.03.2019 21:00:00 12,2 -2,0 24 13 N 1015,4 30 -
13.03.2019 20:00:00 13,0 -4,2 34 18 N 1014,8 20 -
13.03.2019 19:00:00 14,4 6,0 29 16 N 1014,4 20 -
13.03.2019 18:00:00 14,6 7,4 16 9 NO 1014,0 20 0
13.03.2019 17:00:00 14,8 10,2 8 4 SE 1014,0 20 0
13.03.2019 16:00:00 15,6 5,8 11 6 ESE 1014,2 20 0
13.03.2019 15:00:00 16,0 7,5 11 6 E 1014,7 30 60
13.03.2019 14:00:00 18,4 8,7 9 5 E 1015,8 30 60
13.03.2019 13:00:00 19,0 8,7 11 6 ESE 1016,2 20 60
13.03.2019 12:00:00 18,4 4,6 9 5 SSE 1017,2 20 60
13.03.2019 11:00:00 16,8 5,1 8 4 OSO 1017,4 20 60
13.03.2019 10:00:00 13,2 2,1 15 8 S 1018,6 30 60
13.03.2019 09:00:00 11,0 1,0 4 2 E 1018,4 20 -
13.03.2019 08:00:00 9,0 0,4 15 8 ONO 1018,7 20 -
13.03.2019 07:00:00 8,6 -1,5 15 8 OSO 1019,5 20 0
13.03.2019 06:00:00 8,4 -0,9 13 7 O 1020,2 20 -
13.03.2019 05:00:00 9,2 -0,7 13 7 OSO 1020,4 20 -
13.03.2019 04:00:00 9,0 -1,1 9 5 SSO 1020,2 20 -
13.03.2019 03:00:00 8,8 -1,6 9 5 SO 1021,3 20 -
13.03.2019 02:00:00 8,6 -2,1 21 11 NO 1022,1 20 -
13.03.2019 01:00:00 8,0 -0,7 21 11 NO 1022,4 20 -
13.03.2019 00:00:00 8,0 -1,0 18 10 NO 1023,1 20 -
12.03.2019 23:00:00 8,6 -0,2 22 12 ONO 1023,4 20 -
12.03.2019 22:00:00 9,0 -0,1 15 8 ONO 1023,8 20 -
12.03.2019 21:00:00 9,4 -0,8 13 7 O 1023,8 20 -
12.03.2019 20:00:00 10,2 -1,8 5 3 SSE 1023,8 20 -

tt = Temperatura
td = dewpoint
ff = velocità del vento
dd = direzione del vento
ppp = reduced air pressure
vv = visibility
sd = ore di luce

Stazioni seguenti

WeatherPro
AMSI
MeteoEarth